Simultaneous Nadir Overpasses (SNOs) Predictions

Prediction of SNOs between FY3D and METOP-C Satellite Orbit:

Table of predicted SNOs for the next 14.0 days since TLE Epoch: 1/20/2023
Index Date (FY3D) Time (FY3D) Lat,Lon (FY3D) SZA (FY3D ) Date (METOP-C) Time (METOP-C) Lat,Lon (METOP-C) SZA (METOP-C ) Distance(km) Time Diff (sec)
1 02/02/2023 07:30:09 -75.05,-118.14 88.01 02/02/2023 07:31:16 -75.02,-115.47 88.13 76.72 67
2 02/02/2023 08:20:50 74.81, 49.85 91.73 02/02/2023 08:22:01 74.76, 51.13 91.62 38.00 71
3 02/02/2023 09:11:33 -74.68,-142.48 88.42 02/02/2023 09:12:46 -74.62,-141.92 88.52 17.92 73
4 02/02/2023 10:02:16 74.54, 25.22 91.42 02/02/2023 10:03:27 74.55, 25.22 91.41 0.27 71
5 02/02/2023 10:53:02 -74.56,-167.51 88.58 02/02/2023 10:54:09 -74.55,-167.44 88.60 2.24 67
6 02/02/2023 11:43:47 74.51, -0.08 91.36 02/02/2023 11:44:49 74.53, -0.17 91.37 3.21 62
7 02/02/2023 12:34:33 -74.53, 167.19 88.64 02/02/2023 12:35:31 -74.54, 167.18 88.64 1.21 58
8 02/02/2023 13:25:19 74.53, -25.51 91.36 02/02/2023 13:26:11 74.51, -25.56 91.34 2.66 52
9 02/02/2023 14:16:05 -74.54, 141.77 88.64 02/02/2023 14:16:53 -74.52, 141.79 88.67 2.84 48
10 02/02/2023 15:06:51 74.55, -50.93 91.36 02/02/2023 15:07:32 74.54, -50.82 91.34 3.54 41
11 02/02/2023 15:57:36 -74.51, 116.47 88.69 02/02/2023 15:58:15 -74.50, 116.40 88.71 2.32 39
12 02/02/2023 16:48:22 74.52, -76.23 91.31 02/02/2023 16:48:54 74.52, -76.20 91.31 1.11 32
13 02/02/2023 17:39:08 -74.53, 91.04 88.70 02/02/2023 17:39:36 -74.53, 91.14 88.70 3.06 28
14 02/02/2023 18:29:53 74.48,-101.53 91.25 02/02/2023 18:30:16 74.50,-101.59 91.27 2.95 23
15 02/02/2023 19:20:39 -74.50, 65.74 88.75 02/02/2023 19:20:58 -74.51, 65.76 88.74 1.79 19
16 02/02/2023 20:11:25 74.50,-126.95 91.25 02/02/2023 20:11:38 74.49,-126.98 91.23 1.84 13
17 02/02/2023 21:02:11 -74.52, 40.32 88.75 02/02/2023 21:02:20 -74.50, 40.37 88.77 2.65 9
18 02/02/2023 21:52:56 74.47,-152.25 91.20 02/02/2023 21:53:00 74.47,-152.37 91.20 3.44 4
19 02/02/2023 22:43:42 -74.48, 15.02 88.81 02/02/2023 22:43:42 -74.48, 14.98 88.81 1.26 0
20 02/02/2023 23:34:28 74.49,-177.68 91.19 02/02/2023 23:34:21 74.50,-177.63 91.20 2.02 7
21 02/03/2023 00:25:13 -74.45, -10.28 88.86 02/03/2023 00:25:04 -74.46, -10.40 88.85 3.82 9
22 02/03/2023 01:15:59 74.46, 157.02 91.14 02/03/2023 01:15:43 74.48, 156.99 91.17 2.95 16
23 02/03/2023 02:06:45 -74.47, -35.70 88.86 02/03/2023 02:06:25 -74.49, -35.66 88.84 2.67 20



Historial Predications of SNOs between FY3D and METOP-C
